This is the latest recevied weather packets stored in our database for station/object KE6AFE. If no packets are shown the sender has not sent any weather packets the latest 10 day(s).
| Time | Temp. | Humidity | Pressure | Rain* | Wind** | Luminosity | Snow |
|---|---|---|---|---|---|---|---|
| 1778139002 | 15.56° C | 71% | 1020.1 hPa | 0 mm | - | - | - |
| 1778138392 | 15.56° C | 70% | 1020.2 hPa | 0 mm | - | - | - |
| 1778137782 | 15.56° C | 70% | 1020.1 hPa | 0 mm | - | - | - |
| 1778137172 | 15.56° C | 69% | 1020.2 hPa | 0 mm | - | - | - |
| 1778136563 | 15.56° C | 69% | 1020.1 hPa | 0 mm | - | - | - |
| 1778135953 | 15.56° C | 69% | 1020.1 hPa | 0 mm | - | - | - |
| 1778135342 | 15.56° C | 69% | 1020.1 hPa | 0 mm | - | - | - |
| 1778134732 | 15.56° C | 69% | 1020.2 hPa | 0 mm | - | - | - |
| 1778134122 | 16.11° C | 69% | 1020.1 hPa | 0 mm | - | - | - |
| 1778133512 | 16.11° C | 68% | 1020.1 hPa | 0 mm | - | - | - |
| 1778132902 | 16.11° C | 68% | 1020.1 hPa | 0 mm | - | - | - |
| 1778132292 | 16.67° C | 67% | 1020.3 hPa | 0 mm | - | - | - |
| 1778131682 | 16.67° C | 66% | 1020.3 hPa | 0 mm | - | - | - |
| 1778131072 | 17.22° C | 66% | 1020.3 hPa | 0 mm | - | - | - |
| 1778130462 | 17.22° C | 65% | 1020.3 hPa | 0 mm | - | - | - |
| 1778129852 | 17.78° C | 64% | 1020.2 hPa | 0 mm | - | - | - |
| 1778129242 | 17.78° C | 64% | 1020.2 hPa | 0 mm | - | - | - |
| 1778128632 | 18.33° C | 63% | 1020.1 hPa | 0 mm | - | - | - |
| 1778128022 | 18.33° C | 62% | 1019.9 hPa | 0 mm | - | - | - |
| 1778127412 | 18.89° C | 61% | 1019.7 hPa | 0 mm | - | - | - |
| 1778126803 | 19.44° C | 61% | 1019.6 hPa | 0 mm | - | - | - |
| 1778126192 | 19.44° C | 61% | 1019.6 hPa | 0 mm | - | - | - |
| 1778125583 | 20° C | 60% | 1019.5 hPa | 0 mm | - | - | - |
| 1778124972 | 20° C | 60% | 1019.4 hPa | 0 mm | - | - | - |
| 1778124362 | 20.56° C | 59% | 1019.3 hPa | 0 mm | - | - | - |
* Rain latest hour (hover to see other rain measurements)
** Current wind speed in m/s (hover to see current wind gust speed)